User: anonymous   Login
Location: Newark
(58.8333°N, 23.5833°E)
Time: 09:56:12
(UTC+00:00)
Language:

POLYITAN 1 - Orbit

View from above orbital plane
View from above orbital plane
View from above satellite
View from above satellite

Ground track
Ground track

The orbit data is extracted from the following two-line orbital elements,

1 40042U 14033AJ  19349.83004464 +.00000251 +00000-0 +32857-4 0  9993
2 40042 097.9182 269.6400 0014584 171.7967 188.3490 14.88761333297527
Epoch (UTC): 15 December 2019 19:55:15
Eccentricity: 0.0014584
inclination: 97.9182°
perigee height: 591 km
apogee height: 612 km
right ascension of ascending node: 269.6400°
argument of perigee: 171.7967°
revolutions per day: 14.88761333
mean anomaly at epoch: 188.3490°
orbit number at epoch: 29752

The dashed part of the orbit path shows where the satellite is in the earth's shadow,  

DLR